Вернуться в каталог

DFS 2

АктивенСвязьGEO
NORAD 20706·PAYLOAD·🇩🇪 Germany

Запущен Jul 24, 1990 с Guiana Space Centre

Loading…

TLE

СвежийSource: Space-Track

Эпоха: Sep 14, 2026, 00:10 UTC

1 20706U 90063B   26257.00710311 -.00000081  00000-0  00000-0 0  9998
2 20706  14.6047   2.9590 0007422 265.0406  98.5990  0.99551882123814

Отслеживайте DFS 2 в реальном времени с AllMySat

Download on the App Store